User: anonymous   Login
Location: Chuathbaluk
(61.5726°N, 159.2454°W)
Time: 17:37:44
(UTC+00:00)
Language:

ISS - Orbit

View from above orbital plane
View from above orbital plane
View from above satellite
View from above satellite

Ground track
Ground track

The orbit data is extracted from the following two-line orbital elements,

1 25544U 98067A   21017.50324443  .00016717  00000-0  10270-3 0  9047
2 25544  51.6425   8.0340 0000155 272.4021  87.7111 15.49318368 25234
Epoch (UTC): 17 January 2021 12:04:40
Eccentricity: 0.0000155
inclination: 51.6425°
perigee height: 418 km
apogee height: 419 km
right ascension of ascending node: 8.0340°
argument of perigee: 272.4021°
revolutions per day: 15.49318368
mean anomaly at epoch: 87.7111°
orbit number at epoch: 2523

The dashed part of the orbit path shows where the satellite is in the earth's shadow,  

DLR